CST,Max TemperatureF,Mean TemperatureF,Min TemperatureF,Max Dew PointF,MeanDew PointF,Min DewpointF,Max Humidity, Mean Humidity, Min Humidity, Max Sea Level PressureIn, Mean Sea Level PressureIn, Min Sea Level PressureIn, Max VisibilityMiles, Mean VisibilityMiles, Min VisibilityMiles, Max Wind SpeedMPH, Mean Wind SpeedMPH, Max Gust SpeedMPH,PrecipitationIn, CloudCover, Events, WindDirDegrees
2013-11-1,50,37,24,33,29,22,92,73,54,29.91,29.67,29.47,10,9,7,20,6,24,0.00,5,,310
2013-11-2,53,41,28,34,30,26,92,68,44,30.02,29.97,29.92,10,10,10,10,6,13,0.00,1,,241
2013-11-3,54,44,34,34,32,30,85,63,41,29.92,29.72,29.61,10,10,10,36,17,45,0.00,6,,145
2013-11-4,47,36,25,34,26,19,82,64,46,30.01,29.79,29.62,10,10,10,28,11,33,0.00,5,,255
2013-11-5,36,27,17,20,18,13,84,68,52,30.19,30.13,30.05,10,10,10,14,7,17,0.00,3,,246
2013-11-6,37,26,14,20,15,11,88,66,44,30.18,30.12,30.09,10,10,10,7,2,8,0.00,4,,357
2013-11-7,39,27,14,27,20,12,88,76,64,30.22,30.17,30.10,10,8,0,9,5,13,0.01,4,Snow,243
2013-11-8,42,31,19,32,27,16,96,73,49,30.08,29.74,29.56,10,9,7,29,11,38,T,7,Rain-Snow,144
2013-11-9,37,32,27,34,29,23,92,78,64,30.26,29.92,29.63,10,10,6,29,16,38,0.01,8,Rain-Snow,306
2013-11-10,38,25,11,28,19,4,92,77,62,30.41,30.22,30.10,10,8,1,28,13,32,T,5,Snow,312
2013-11-11,20,12,4,6,4,0,83,67,51,30.76,30.64,30.39,10,10,7,20,10,26,T,4,Snow,319
2013-11-12,40,22,4,21,12,0,83,64,44,30.75,30.49,30.14,10,10,10,20,12,24,0.00,1,,196
2013-11-13,53,39,24,34,27,19,85,65,44,30.10,29.84,29.76,10,10,10,23,11,28,0.00,5,,251
2013-11-14,42,37,31,36,33,29,96,86,75,29.83,29.76,29.69,10,10,6,16,7,20,0.02,7,Rain,265
2013-11-15,51,36,20,39,31,20,96,74,52,29.75,29.57,29.34,10,10,6,23,10,28,T,3,Rain,185
2013-11-16,41,33,24,35,31,23,100,88,76,29.34,29.32,29.29,10,9,5,15,6,17,T,5,Rain,173
2013-11-17,36,31,25,34,26,18,92,80,68,29.94,29.59,29.32,10,9,5,28,18,33,0.02,8,Rain-Snow,332
2013-11-18,29,26,22,18,17,15,84,71,58,30.19,30.12,29.95,10,10,10,18,9,23,0.00,6,,336
2013-11-19,41,32,22,32,24,18,88,74,59,30.11,29.78,29.54,10,10,10,31,14,37,0.00,6,,157
2013-11-20,30,23,15,26,17,10,92,80,68,30.24,29.98,29.61,10,8,1,26,16,35,0.05,6,Snow,343
2013-11-21,15,5,-5,11,4,-7,88,77,66,30.66,30.45,30.20,10,8,2,25,14,31,0.01,6,Snow,321
2013-11-22,19,8,-3,14,2,-7,86,74,61,30.87,30.60,30.41,10,8,1,25,11,29,0.03,5,Snow,322
2013-11-23,8,-2,-13,1,-8,-17,87,74,60,30.97,30.84,30.54,10,10,10,17,7,23,0.00,1,,236
2013-11-24,35,21,7,26,14,1,80,72,63,30.51,30.00,29.73,10,10,10,32,16,38,0.00,3,,205
2013-11-25,35,27,18,26,20,8,88,75,62,30.21,30.01,29.79,10,9,2,29,16,35,T,7,Snow,322
2013-11-26,18,8,-3,9,4,-6,88,75,61,30.49,30.40,30.23,10,10,9,24,12,29,T,1,,328
2013-11-27,22,10,-3,14,7,-6,87,75,62,30.44,30.17,30.00,10,10,8,24,10,30,T,6,Snow,166
2013-11-28,20,9,-2,14,6,-4,87,77,67,30.51,30.37,30.13,10,10,5,24,9,29,T,3,Snow,355
2013-11-29,31,17,2,19,13,1,88,73,58,30.47,30.19,29.99,10,10,10,25,10,31,0.00,5,,165
2013-11-30,25,22,19,20,18,17,91,83,74,30.25,30.12,29.97,10,9,7,14,8,16,T,7,,342